Le nostre stazioni meteo in Italia

Pubblicità
Il mio iltempo24.it
Vieste, Italia (16266): Temperatura & dewpoint: 11.02.2019 14:00:00 - 17.02.2019 14:00:00 (CET)Vieste, Italia (16266): velocità del vento: 11.02.2019 14:00:00 - 17.02.2019 14:00:00 (CET)Vieste, Italia (16266): direzione del vento: 11.02.2019 14:00:00 - 17.02.2019 14:00:00 (CET)Vieste, Italia (16266): reduced air pressure: 11.02.2019 14:00:00 - 17.02.2019 14:00:00 (CET)Vieste, Italia (16266): precipitazioni: 11.02.2019 14:00:00 - 17.02.2019 14:00:00 (CET)
Data & Tempo tt [°C] td [°C] ff [km/h] ff [kn] dd ppp [hPa] rr [mm]
17.02.2019 14:00:00 - - - - - - -
17.02.2019 13:00:00 13,5 4,8 16 9 N 1027,6 -
17.02.2019 12:00:00 13,6 5,7 21 11 NNE 1028,0 -
17.02.2019 11:00:00 12,9 5,0 18 10 N 1028,4 -
17.02.2019 10:00:00 12,6 6,1 9 5 N 1028,4 -
17.02.2019 09:00:00 10,7 7,7 9 5 NNO 1028,7 -
17.02.2019 08:00:00 6,1 1,0 2 1 NNE 1028,5 -
17.02.2019 07:00:00 5,8 1,8 4 2 NNO 1028,1 -
17.02.2019 06:00:00 4,9 1,5 4 2 O 1028,1 -
17.02.2019 05:00:00 5,4 1,5 0 0 N 1028,1 -
17.02.2019 04:00:00 7,7 3,7 2 1 N 1028,2 -
17.02.2019 03:00:00 8,6 4,7 8 4 N 1028,5 -
17.02.2019 02:00:00 8,8 4,9 8 4 N 1028,7 -
17.02.2019 01:00:00 8,9 5,0 9 5 N 1028,9 -
17.02.2019 00:00:00 8,9 5,2 9 5 NO 1029,2 -
16.02.2019 23:00:00 8,8 4,9 8 4 NNO 1029,5 -
16.02.2019 22:00:00 8,8 4,6 8 4 NNO 1029,6 -
16.02.2019 21:00:00 8,9 4,5 9 5 NNO 1029,7 -
16.02.2019 20:00:00 8,9 4,1 9 5 NO 1029,7 -
16.02.2019 19:00:00 8,9 3,9 8 4 NO 1029,7 -
16.02.2019 18:00:00 9,9 4,8 8 4 NNO 1029,6 -
16.02.2019 17:00:00 11,0 5,5 13 7 NNO 1029,6 -
16.02.2019 16:00:00 11,9 5,2 13 7 N 1029,7 -
16.02.2019 15:00:00 12,2 4,6 16 9 NNE 1030,0 -
16.02.2019 14:00:00 12,2 2,3 18 10 NNE 1030,5 -
16.02.2019 13:00:00 12,3 2,9 21 11 N 1030,6 -
16.02.2019 12:00:00 12,2 3,1 18 10 N 1030,8 -
16.02.2019 11:00:00 11,9 3,3 13 7 N 1030,7 -
16.02.2019 10:00:00 11,6 3,5 11 6 N 1030,5 -
16.02.2019 09:00:00 10,4 4,5 8 4 NNO 1030,4 -
16.02.2019 08:00:00 8,0 2,4 5 3 N 1030,1 -
16.02.2019 07:00:00 7,2 1,4 5 3 ONO 1029,2 -
16.02.2019 06:00:00 7,3 1,5 5 3 NNO 1029,2 -
16.02.2019 05:00:00 7,2 1,6 8 4 ONO 1029,2 -
16.02.2019 04:00:00 7,3 2,1 5 3 N 1029,1 -
16.02.2019 03:00:00 6,9 0,9 4 2 ONO 1029,3 -
16.02.2019 02:00:00 7,9 2,1 5 3 O 1029,7 -
16.02.2019 01:00:00 10,0 4,7 13 7 NE 1029,7 -
16.02.2019 00:00:00 10,0 4,1 15 8 ENE 1029,5 -
15.02.2019 23:00:00 8,3 1,8 4 2 N 1029,2 -
15.02.2019 22:00:00 10,2 3,8 11 6 E 1029,3 -
15.02.2019 21:00:00 10,6 3,5 21 11 E 1029,0 -
15.02.2019 20:00:00 10,9 3,6 18 10 ENE 1028,4 -
15.02.2019 19:00:00 10,9 3,8 18 10 E 1028,2 -
15.02.2019 18:00:00 11,2 3,9 22 12 E 1027,8 -
15.02.2019 17:00:00 11,4 6,5 16 9 ENE 1027,2 -
15.02.2019 16:00:00 12,3 5,4 18 10 N 1026,3 -
15.02.2019 15:00:00 12,7 6,7 16 9 NNE 1026,6 -
15.02.2019 14:00:00 12,1 5,9 13 7 NNE 1027,0 -
15.02.2019 13:00:00 13,0 6,1 15 8 NNE 1027,3 -
15.02.2019 12:00:00 12,9 6,2 13 7 NNE 1027,9 -
15.02.2019 11:00:00 12,7 6,2 11 6 N 1028,1 -
15.02.2019 10:00:00 12,2 7,0 11 6 N 1028,1 -
15.02.2019 09:00:00 10,6 6,7 8 4 NNO 1028,4 -
15.02.2019 08:00:00 9,7 5,8 8 4 NO 1028,4 -
15.02.2019 07:00:00 9,3 5,6 9 5 NO 1028,0 -
15.02.2019 06:00:00 9,3 5,8 9 5 N 1028,0 -
15.02.2019 05:00:00 9,1 5,6 9 5 NNO 1028,2 -
15.02.2019 04:00:00 9,5 6,0 8 4 O 1028,4 -
15.02.2019 03:00:00 9,7 5,2 11 6 N 1028,8 -
15.02.2019 02:00:00 10,5 5,2 15 8 N 1029,0 -
15.02.2019 01:00:00 10,8 7,8 15 8 NNO 1029,2 -
15.02.2019 00:00:00 10,7 7,5 13 7 O 1029,0 -
14.02.2019 23:00:00 10,3 6,8 13 7 NO 1029,1 -
14.02.2019 22:00:00 10,4 6,7 13 7 N 1029,1 -
14.02.2019 21:00:00 10,5 6,6 15 8 NNO 1029,4 -
14.02.2019 20:00:00 10,5 6,8 15 8 ONO 1029,5 -
14.02.2019 19:00:00 10,6 7,1 15 8 NO 1030,0 -
14.02.2019 18:00:00 10,7 7,0 15 8 NO 1029,8 -
14.02.2019 17:00:00 11,0 6,9 18 10 N 1029,9 -
14.02.2019 16:00:00 11,6 7,5 16 9 NNO 1030,6 -
14.02.2019 15:00:00 12,3 8,1 16 9 NNE 1030,5 -
14.02.2019 14:00:00 12,3 7,9 - - - 1031,2 -
14.02.2019 13:00:00 12,6 8,0 26 14 NO 1031,5 -
14.02.2019 12:00:00 12,6 7,4 29 16 N 1032,0 -
14.02.2019 11:00:00 12,3 5,8 24 13 NNO 1032,3 -
14.02.2019 10:00:00 11,9 5,2 26 14 N 1032,3 -
14.02.2019 09:00:00 11,1 4,5 26 14 N 1032,2 -
14.02.2019 08:00:00 10,7 4,5 21 11 N 1032,1 -
14.02.2019 07:00:00 10,2 4,3 21 11 N 1031,9 0,0
14.02.2019 06:00:00 9,8 3,2 21 11 N 1031,7 -
14.02.2019 05:00:00 9,8 2,6 24 13 NNE 1031,7 -
14.02.2019 04:00:00 9,3 1,4 18 10 N 1031,9 -
14.02.2019 03:00:00 9,3 0,9 22 12 NNE 1032,3 -
14.02.2019 02:00:00 9,2 0,3 34 18 NNE 1032,8 -
14.02.2019 01:00:00 8,9 -2,5 29 16 NE 1033,4 0,0
14.02.2019 00:00:00 9,0 -1,5 26 14 NE 1033,7 -
13.02.2019 23:00:00 9,1 -0,6 34 18 NE 1033,2 -
13.02.2019 22:00:00 9,2 -1,4 41 22 NNE 1032,6 -
13.02.2019 21:00:00 9,2 -0,5 35 19 N 1032,4 -
13.02.2019 20:00:00 9,3 -1,0 41 22 ENE 1032,5 -
13.02.2019 19:00:00 9,4 -0,6 37 20 ENE 1032,2 0,0
13.02.2019 18:00:00 9,4 -0,6 41 22 NNE 1031,6 -
13.02.2019 17:00:00 9,3 -0,7 31 17 NE 1031,3 -
13.02.2019 16:00:00 9,5 0,3 39 21 N 1031,3 -
13.02.2019 15:00:00 9,5 -0,2 46 25 NNE 1031,1 -
13.02.2019 14:00:00 9,1 -2,3 31 17 N 1031,3 -
13.02.2019 13:00:00 9,6 -3,5 29 16 N 1031,6 -
13.02.2019 12:00:00 9,4 -2,4 31 17 ENE 1032,1 -
13.02.2019 11:00:00 9,1 -1,4 29 16 NNE 1032,4 -
13.02.2019 10:00:00 8,5 -0,9 37 20 NNE 1031,9 -
13.02.2019 09:00:00 8,1 -1,8 41 22 NE 1031,9 -
13.02.2019 08:00:00 7,9 -3,1 46 25 NE 1031,4 -
13.02.2019 07:00:00 7,6 -4,6 31 17 NNE 1030,8 0,0
13.02.2019 06:00:00 7,8 -2,4 50 27 NNE 1029,6 -
13.02.2019 05:00:00 7,9 -2,8 52 28 NE 1029,2 -
13.02.2019 04:00:00 8,2 -1,4 44 24 ENE 1028,8 -
13.02.2019 03:00:00 8,4 -0,5 41 22 NE 1029,0 -
13.02.2019 02:00:00 8,9 -0,8 48 26 NNE 1028,8 -
13.02.2019 01:00:00 8,9 -1,3 46 25 ENE 1028,6 0,0
13.02.2019 00:00:00 9,1 -0,3 42 23 NE 1028,6 -
12.02.2019 23:00:00 9,1 -1,7 44 24 NE 1028,1 -
12.02.2019 22:00:00 9,4 -1,5 46 25 NNE 1027,5 -
12.02.2019 21:00:00 9,4 -1,2 39 21 NE 1026,7 -
12.02.2019 20:00:00 9,4 -1,2 44 24 NE 1026,5 -
12.02.2019 19:00:00 9,6 -0,4 52 28 ENE 1025,6 0,0
12.02.2019 18:00:00 9,5 -1,1 42 23 NNE 1024,6 -
12.02.2019 17:00:00 9,8 0,3 42 23 NNE 1023,7 -
12.02.2019 16:00:00 9,9 -0,7 44 24 NE 1022,9 -
12.02.2019 15:00:00 10,0 -0,6 46 25 NE 1022,0 -
12.02.2019 14:00:00 10,1 0,0 46 25 NNE 1021,4 -
12.02.2019 13:00:00 10,2 1,7 41 22 NNE 1021,0 -
12.02.2019 12:00:00 10,1 1,6 39 21 N 1021,0 -
12.02.2019 11:00:00 10,3 2,6 41 22 NNE 1020,8 -
12.02.2019 10:00:00 10,1 2,6 42 23 NE 1020,3 -
12.02.2019 09:00:00 10,1 1,6 42 23 NNE 1019,7 -
12.02.2019 08:00:00 10,0 1,8 48 26 NNE 1018,7 -
12.02.2019 07:00:00 10,1 2,1 44 24 NE 1017,8 0,0
12.02.2019 06:00:00 10,4 2,4 52 28 NNE 1017,0 -
12.02.2019 05:00:00 10,2 2,5 44 24 NE 1016,3 -
12.02.2019 04:00:00 10,3 2,6 44 24 NNE 1016,0 -
12.02.2019 03:00:00 10,4 2,6 48 26 NNE 1015,7 -
12.02.2019 02:00:00 10,6 2,6 48 26 NNE 1015,2 -
12.02.2019 01:00:00 10,7 2,9 48 26 NNE 1014,3 0,0
12.02.2019 00:00:00 10,7 3,6 41 22 NE 1013,3 -
11.02.2019 23:00:00 10,6 4,4 44 24 NNE 1012,4 -
11.02.2019 22:00:00 10,8 4,4 41 22 N 1011,3 -
11.02.2019 21:00:00 10,7 4,5 41 22 NNE 1010,5 -
11.02.2019 20:00:00 10,4 5,9 41 22 NE 1009,0 -
11.02.2019 19:00:00 9,3 5,6 13 7 ONO 1008,5 -
11.02.2019 18:00:00 9,5 7,6 13 7 NO 1007,8 -
11.02.2019 17:00:00 8,8 6,0 11 6 N 1007,2 -
11.02.2019 16:00:00 8,6 4,6 22 12 NNO 1008,0 -
11.02.2019 15:00:00 9,6 8,0 9 5 ONO 1006,7 -
11.02.2019 14:00:00 9,6 8,3 5 3 ONO 1007,0 -

tt = Temperatura
td = dewpoint
ff = velocità del vento
dd = direzione del vento
ppp = reduced air pressure
rr = precipitazioni

Stazioni seguenti

WeatherPro
AMSI
MeteoEarth